Weather History for KCLT - September, 2013

Change the Weather History Date:

Tuesday, September 24, 2013

  Actual Average Record
Temperature  
Mean Temperature 70 °F 68 °F  
Max Temperature 80 °F 79 °F 95 °F (1895)
Min Temperature 60 °F 57 °F 43 °F (1999)
Degree Days  
Heating Degree Days 0 1  
Month to date heating degree days 0 9  
Since 1 July heating degree days 1 9  
Cooling Degree Days 5 4  
Month to date cooling degree days 224 177  
Year to date cooling degree days 1512 1454  
Growing Degree Days 20 (Base 50)    
Moisture  
Dew Point 56 °F    
Average Humidity 66    
Maximum Humidity 84    
Minimum Humidity 48    
Precipitation  
Precipitation 0.00 in 0.10 in 3.89 in (1947)
Month to date precipitation 2.89 2.56  
Year to date precipitation 38.21 31.16  
Snow  
Snow 0.00 in 0.00 in 0.00 in ()
Month to date snowfall 0.0 0.0  
Since 1 July snowfall 0.0 0.0  
Since 1 September snowfall 0.0 0.0  
Snow Depth 0.00 in    
Sea Level Pressure  
Sea Level Pressure 30.02 in    
Wind  
Wind Speed 4 mph (SSE)    
Max Wind Speed 8 mph    
Max Gust Speed 14 mph    
Visibility 10 miles    
Events      
T = Trace of Precipitation, MM = Missing Value Source: NWS Daily Summary

Daily Weather History Graph

Daily Weather History Graph

Search for Another Location

Airport or City:

Trip Planner

Search our weather history database for the weather conditions in past years. The results will help you decide how hot, cold, wet, or windy it might be!

Date:

Astronomy

Sep. 24, 2013 Rise Set
Actual Time 7:13 AM EDT 7:17 PM EDT
Civil Twilight 6:48 AM EDT 7:42 PM EDT
Nautical Twilight 6:18 AM EDT 8:12 PM EDT
Astronomical Twilight 5:48 AM EDT 8:41 PM EDT
Moon 10:45 PM EDT (9/24) 12:15 PM EDT (9/24)
Length of Visible Light 12h 54m
Length of Day
12h 03m
Waning Gibbous, 73% of the Moon is Illuminated
Sep 24
Waning Gibbous
Sep 26
Last Quarter
Oct 4
New
Oct 11
First Quarter
Oct 18
Full

Hourly Weather History & Observations

Time (EDT) Temp. Dew Point Humidity Pressure Visibility Wind Dir Wind Speed Gust Speed Precip Events Conditions
12:52 AM 63.0 °F 57.0 °F 81% 30.07 in 10.0 mi SSE 3.5 mph - N/A   Scattered Clouds
1:52 AM 63.0 °F 57.0 °F 81% 30.06 in 10.0 mi SE 4.6 mph - N/A   Overcast
2:52 AM 63.0 °F 55.9 °F 78% 30.06 in 10.0 mi SE 6.9 mph - N/A   Mostly Cloudy
3:52 AM 63.0 °F 55.0 °F 75% 30.05 in 10.0 mi SE 6.9 mph - N/A   Overcast
4:52 AM 63.0 °F 55.0 °F 75% 30.06 in 10.0 mi SE 5.8 mph - N/A   Overcast
5:52 AM 63.0 °F 55.0 °F 75% 30.06 in 10.0 mi SSE 6.9 mph - N/A   Overcast
6:52 AM 61.0 °F 55.0 °F 81% 30.08 in 10.0 mi Calm Calm - N/A   Overcast
7:52 AM 60.1 °F 55.0 °F 83% 30.09 in 10.0 mi Calm Calm - N/A   Overcast
8:52 AM 64.9 °F 55.0 °F 70% 30.09 in 10.0 mi Calm Calm - N/A   Partly Cloudy
9:52 AM 66.9 °F 55.0 °F 66% 30.09 in 10.0 mi South 3.5 mph - N/A   Clear
10:52 AM 71.1 °F 55.9 °F 59% 30.08 in 10.0 mi Variable 3.5 mph - N/A   Clear
11:52 AM 73.0 °F 57.0 °F 57% 30.06 in 10.0 mi ESE 5.8 mph - N/A   Clear
12:52 PM 75.0 °F 55.9 °F 51% 30.04 in 10.0 mi South 4.6 mph - N/A   Scattered Clouds
1:52 PM 75.0 °F 55.9 °F 51% 30.01 in 10.0 mi SW 3.5 mph - N/A   Scattered Clouds
2:52 PM 79.0 °F 57.0 °F 47% 29.99 in 10.0 mi Calm Calm - N/A   Mostly Cloudy
3:52 PM 75.9 °F 55.9 °F 50% 29.97 in 10.0 mi Calm Calm - N/A   Mostly Cloudy
4:52 PM 75.9 °F 57.0 °F 52% 29.96 in 10.0 mi SSW 4.6 mph - N/A   Mostly Cloudy
5:52 PM 75.0 °F 55.9 °F 51% 29.95 in 10.0 mi South 4.6 mph - N/A   Mostly Cloudy
6:52 PM 72.0 °F 57.0 °F 59% 29.95 in 10.0 mi South 4.6 mph - N/A   Mostly Cloudy
7:52 PM 71.1 °F 57.9 °F 63% 29.95 in 10.0 mi Calm Calm - N/A   Mostly Cloudy
8:52 PM 72.0 °F 57.9 °F 61% 29.95 in 10.0 mi SSE 3.5 mph - N/A   Mostly Cloudy
9:52 PM 71.1 °F 57.9 °F 63% 29.96 in 10.0 mi SSE 5.8 mph - N/A   Mostly Cloudy
10:52 PM 70.0 °F 57.0 °F 63% 29.95 in 10.0 mi ESE 5.8 mph - N/A   Mostly Cloudy
11:52 PM 68.0 °F 57.0 °F 68% 29.95 in 10.0 mi East 4.6 mph - N/A   Scattered Clouds